Location: Highland Meadows Observing Site
(48.4428°N, 114.5461°W)
Time: 07:20:57
(UTC-06:00)

Gurwin Techsat 1B - Visible Passes

Search period start: 20 April 2014 00:00
Search period end: 30 April 2014 00:00
Orbit: 812 x 815 km, 98.5° (Epoch: 19 April)

Date Brightness Start Highest point End Pass type
(mag) Time Alt. Az. Time Alt. Az. Time Alt. Az.
20 Apr 11.0 03:25:33 10° NE 03:28:36 15° E 03:31:38 10° ESE visible
20 Apr 8.6 05:03:56 10° NNE 05:09:16 84° WNW 05:14:13 12° SSW visible
21 Apr 8.9 04:41:19 10° NNE 04:46:38 65° ESE 04:51:25 13° S visible
22 Apr 9.6 04:18:51 10° NNE 04:23:54 42° E 04:28:37 12° SSE visible
22 Apr 9.5 05:59:06 10° N 06:03:46 32° WNW 06:08:25 10° SW visible
23 Apr 10.3 03:56:34 10° NE 04:01:07 28° E 04:05:37 10° SSE visible
23 Apr 9.0 05:36:13 10° N 05:41:18 47° WNW 05:46:21 10° SW visible
24 Apr 10.9 03:34:35 10° NE 03:38:14 19° E 03:41:52 10° SE visible
24 Apr 8.6 05:13:27 10° N 05:18:45 71° WNW 05:24:02 10° SSW visible
25 Apr 11.2 03:13:25 10° ENE 03:15:16 12° E 03:17:07 10° ESE visible
25 Apr 8.7 04:50:48 10° NNE 04:56:09 78° ESE 05:01:26 10° S visible
26 Apr 9.3 04:28:16 10° NNE 04:33:27 51° E 04:38:36 10° S visible
27 Apr 10.0 04:05:53 10° NNE 04:10:41 33° E 04:15:28 10° SSE visible
27 Apr 9.3 05:45:48 10° N 05:50:44 40° WNW 05:55:38 10° SW visible
28 Apr 10.6 03:43:44 10° NE 03:47:51 22° E 03:51:56 10° SE visible
28 Apr 8.8 05:22:59 10° N 05:28:13 59° WNW 05:33:25 10° SSW visible
29 Apr 11.1 03:22:05 10° NE 03:24:55 14° E 03:27:45 10° ESE visible
29 Apr 8.6 05:00:17 10° NNE 05:05:38 88° WNW 05:10:57 10° SSW visible
